This demonstration page uses our WeatherBlox Daily Observations layout. Learn more.

Left ArrowRight Arrow

39.01783, -85.05884

Hourly Observations for December 10, 2016

Temp ( °F °C ) Dew Point ( °F °C ) Humidity (%) Winds ( mph kmh ) Pressure ( in mb ) Visibility ( mi km ) Precip ( " mm )
12:52 am 00:52 Partly Cloudy 20 -6.7 14 -10 78 78 SW 6 9 30.56 1035 10 16 N/A
1:52 am 01:52 Partly Cloudy 19 -7.2 15 -9.4 84 84 SW 5 7 30.55 1035 10 16 N/A
2:52 am 02:52 Mostly Cloudy 19 -7.2 15 -9.4 84 84 WSW 5 7 30.56 1035 10 16 N/A
3:52 am 03:52 Cloudy 20 -6.7 16 -8.9 85 85 WSW 3 6 30.57 1035 10 16 N/A
4:52 am 04:52 Mostly Cloudy 20 -6.7 16 -8.9 85 85 SW 3 6 30.56 1035 9 14 N/A
5:52 am 05:52 Cloudy 20 -6.7 16 -8.9 85 85 WSW 3 6 30.56 1035 9 14 N/A
6:52 am 06:52 Cloudy 20 -6.7 16 -8.9 85 85 WSW 3 6 30.57 1035 9 14 N/A
7:52 am 07:52 Cloudy 20 -6.7 17 -8.3 89 89 SW 3 6 30.58 1036 8 13 N/A
8:52 am 08:52 Mostly Cloudy with Mist and Fog 21 -6.1 17 -8.3 85 85 SW 5 7 30.58 1036 6 10 N/A
9:52 am 09:52 Mostly Cloudy 24 -4.4 18 -7.8 77 77 SW 6 9 30.59 1036 8 13 N/A
10:52 am 10:52 Mostly Cloudy 25 -3.9 16 -8.9 69 69 W 7 11 30.60 1036 10 16 N/A
11:52 am 11:52 Mostly Cloudy 26 -3.3 16 -8.9 66 66 W 5 7 30.57 1035 10 16 N/A
12:52 pm 12:52 Mostly Cloudy 28 -2.2 16 -8.9 60 60 W 8 13 30.54 1034 10 16 N/A
1:52 pm 13:52 Mostly Cloudy 29 -1.7 16 -8.9 58 58 VRB 6 9 30.51 1033 10 16 N/A
2:52 pm 14:52 Mostly Cloudy 29 -1.7 16 -8.9 58 58 SW 7 11 30.50 1033 10 16 N/A
3:52 pm 15:52 Mostly Cloudy 30 -1.1 17 -8.3 58 58 S 6 9 30.49 1032 10 16 N/A
4:52 pm 16:52 Mostly Cloudy 27 -2.8 17 -8.3 66 66 S 5 7 30.49 1032 10 16 N/A
5:52 pm 17:52 Cloudy 28 -2.2 18 -7.8 66 66 N N/A 30.49 1032 10 16 N/A
6:52 pm 18:52 Cloudy 28 -2.2 18 -7.8 66 66 SSE 5 7 30.47 1032 10 16 N/A
7:52 pm 19:52 Cloudy 28 -2.2 17 -8.3 63 63 SSE 5 7 30.47 1032 10 16 N/A
8:52 pm 20:52 Cloudy 28 -2.2 18 -7.8 66 66 SSE 3 6 30.46 1032 10 16 N/A
9:52 pm 21:52 Cloudy 28 -2.2 19 -7.2 69 69 S 6 9 30.42 1030 10 16 N/A
10:52 pm 22:52 Cloudy 28 -2.2 18 -7.8 66 66 S 7 11 30.40 1030 10 16 N/A
11:52 pm 23:52 Cloudy 29 -1.7 17 -8.3 61 61 SSE 8 13 30.39 1029 10 16 N/A

Powered by AerisWeather